Simultaneous Nadir Overpasses (SNOs) Predictions

Prediction of SNOs between LANDSAT-8 and METOP-B Satellite Orbit:

Table of predicted SNOs for the next 14.0 days since TLE Epoch: 12/26/2015
Index Date (LANDSAT-8) Time (LANDSAT-8) Lat,Lon (LANDSAT-8) SZA (LANDSAT-8 ) Date (METOP-B) Time (METOP-B) Lat,Lon (METOP-B) SZA (METOP-B ) Distance(km) Time Diff (sec)
1 12/27/2015 06:04:59 -81.18, -50.44 73.51 12/27/2015 06:04:32 -81.18, -50.53 73.53 1.60 27
2 12/27/2015 06:54:25 81.19, 117.32 106.51 12/27/2015 06:55:11 81.20, 117.32 106.53 0.45 46
3 12/30/2015 01:39:14 -81.17, 15.84 73.71 12/30/2015 01:38:53 -81.18, 15.91 73.70 1.43 21
4 12/30/2015 02:28:39 81.20,-176.06 106.36 12/30/2015 02:29:31 81.21,-175.87 106.41 3.24 52
5 01/01/2016 21:13:27 -81.18, 82.40 73.92 01/01/2016 21:13:13 -81.18, 82.31 73.94 1.45 14
6
